Weather History for Fort Rucker / Ozark, AL

Change the Weather History Date:

Saturday, February 1, 2014

  Actual Average (KOZR) Record (KOZR)
Temperature  
Mean Temperature 55 °F -  
Max Temperature 66 °F 57 °F 71 °F (2011)
Min Temperature 44 °F 38 °F 28 °F (2000)
Degree Days  
Heating Degree Days 10    
Growing Degree Days 5 (Base 50)    
Moisture  
Dew Point 47 °F    
Average Humidity 85    
Maximum Humidity 100    
Minimum Humidity 65    
Precipitation  
Precipitation 0.00 in - - ()
Sea Level Pressure  
Sea Level Pressure 30.10 in    
Wind  
Wind Speed 3 mph (East)    
Max Wind Speed 6 mph    
Max Gust Speed -    
Visibility 7 miles    
Events Fog    
Averages and records for this station are not official NWS values.
T = Trace of Precipitation, MM = Missing Value Source: NWS Daily Summary

Daily Weather History Graph

Daily Weather History Graph

Search for Another Location

Airport:

Trip Planner

Search our weather history database for the weather conditions in past years. The results will help you decide how hot, cold, wet, or windy it might be!

Date:

Astronomy

Feb. 01, 2014 Rise Set
Actual Time 6:35 AM CST 5:17 PM CST
Civil Twilight 6:09 AM CST 5:43 PM CST
Nautical Twilight 5:40 AM CST 6:12 PM CST
Astronomical Twilight 5:11 AM CST 6:40 PM CST
Moon 7:35 AM CST (2/1) 7:39 PM CST (2/1)
Length of Visible Light 11h 33m
Length of Day
10h 42m
Waxing Crescent, 5% of the Moon is Illuminated
Feb 1
Waxing Crescent
Feb 6
First Quarter
Feb 14
Full
Feb 22
Last Quarter
Mar 1
New

Hourly Weather History & Observations

Time (CST) Temp. Windchill Dew Point Humidity Pressure Visibility Wind Dir Wind Speed Gust Speed Precip Events Conditions
12:53 AM 45.0 °F 43.5 °F 37.0 °F 74% 30.09 in 10.0 mi ENE 3.5 mph - N/A   Overcast
1:16 AM 44.6 °F - 37.4 °F 76% 30.11 in 10.0 mi Calm Calm - N/A   Overcast
1:51 AM 44.6 °F 42.2 °F 35.6 °F 71% 30.10 in 10.0 mi East 4.6 mph - N/A   Overcast
1:53 AM 44.1 °F 41.5 °F 36.0 °F 73% 30.07 in 10.0 mi East 4.6 mph - N/A   Overcast
2:21 AM 44.6 °F 43.1 °F 37.4 °F 76% 30.10 in 10.0 mi NNE 3.5 mph - N/A   Overcast
2:42 AM 44.6 °F 42.2 °F 37.4 °F 76% 30.10 in 10.0 mi NE 4.6 mph - N/A   Overcast
2:53 AM 45.0 °F 42.6 °F 37.9 °F 76% 30.06 in 10.0 mi ENE 4.6 mph - N/A   Overcast
3:53 AM 45.0 °F 41.8 °F 39.0 °F 80% 30.06 in 10.0 mi East 5.8 mph - N/A   Overcast
4:16 AM 46.4 °F 44.3 °F 39.2 °F 76% 30.10 in 10.0 mi NE 4.6 mph - N/A   Overcast
4:26 AM 46.4 °F 44.3 °F 39.2 °F 76% 30.10 in 10.0 mi ENE 4.6 mph - N/A   Overcast
4:53 AM 46.0 °F 44.8 °F 39.9 °F 79% 30.08 in 10.0 mi NE 3.5 mph - N/A   Overcast
5:40 AM 46.4 °F 44.3 °F 41.0 °F 81% 30.10 in 10.0 mi East 4.6 mph - N/A   Overcast
5:50 AM 46.4 °F 45.2 °F 41.0 °F 81% 30.10 in 10.0 mi NE 3.5 mph - N/A   Overcast
5:53 AM 46.9 °F - 41.0 °F 80% 30.07 in 10.0 mi NE 3.5 mph - N/A   Overcast
6:29 AM 46.4 °F - 42.8 °F 87% 30.11 in 10.0 mi Calm Calm - N/A   Overcast
6:53 AM 46.0 °F 44.8 °F 42.1 °F 86% 30.10 in 10.0 mi ESE 3.5 mph - N/A   Overcast
7:39 AM 46.4 °F 45.2 °F 44.6 °F 93% 30.13 in 2.5 mi East 3.5 mph - N/A   Overcast
7:53 AM 46.0 °F - 44.1 °F 93% 30.11 in 2.0 mi Calm Calm - N/A   Overcast
8:53 AM 48.0 °F - 46.0 °F 93% 30.12 in 2.0 mi ESE 3.5 mph - N/A   Overcast
9:08 AM 48.2 °F - 46.4 °F 93% 30.15 in 1.8 mi Calm Calm - N/A   Overcast
9:36 AM 50.0 °F - 48.2 °F 94% 30.16 in 2.0 mi Calm Calm - N/A   Overcast
9:53 AM 50.0 °F - 48.0 °F 93% 30.13 in 1.8 mi Calm Calm - N/A   Overcast
10:04 AM 51.8 °F - 48.2 °F 88% 30.16 in 2.0 mi Calm Calm - N/A   Overcast
10:53 AM 53.1 °F - 51.1 °F 93% 30.12 in 2.0 mi Calm Calm - N/A   Overcast
11:41 AM 55.4 °F - 51.8 °F 88% 30.13 in 3.0 mi Calm Calm - N/A   Overcast
11:53 AM 55.9 °F - 52.0 °F 87% 30.09 in 4.0 mi Calm Calm - N/A   Overcast
12:24 PM 57.2 °F - 53.6 °F 88% 30.11 in 5.0 mi Calm Calm - N/A   Overcast
12:53 PM 59.0 °F - 54.0 °F 83% 30.05 in 10.0 mi Calm Calm - N/A   Overcast
1:08 PM 60.8 °F - 53.6 °F 77% 30.08 in 10.0 mi ESE 4.6 mph - N/A   Overcast
1:16 PM 60.8 °F - 53.6 °F 77% 30.08 in 10.0 mi SE 5.8 mph - N/A   Mostly Cloudy
1:53 PM 63.0 °F - 55.0 °F 75% 30.04 in 10.0 mi Calm Calm - N/A   Overcast
2:53 PM 64.9 °F - 53.1 °F 65% 30.04 in 10.0 mi Variable 4.6 mph - N/A   Mostly Cloudy
3:19 PM 64.4 °F - 53.6 °F 68% 30.08 in 10.0 mi Calm Calm - N/A   Mostly Cloudy
3:53 PM 66.0 °F - 54.0 °F 65% 30.04 in 10.0 mi Calm Calm - N/A   Partly Cloudy
4:53 PM 64.9 °F - 53.1 °F 65% 30.04 in 10.0 mi Calm Calm - N/A   Clear
5:53 PM 60.1 °F - 54.0 °F 80% 30.06 in 10.0 mi East 4.6 mph - N/A   Partly Cloudy
6:53 PM 57.0 °F - 54.0 °F 89% 30.06 in 10.0 mi ESE 3.5 mph - N/A   Clear
7:53 PM 55.9 °F - 54.0 °F 93% 30.09 in 10.0 mi ESE 4.6 mph - N/A   Scattered Clouds
8:53 PM 55.0 °F - 53.1 °F 93% 30.09 in 10.0 mi ENE 4.6 mph - N/A   Overcast
9:17 PM 53.6 °F - 53.6 °F 100% 30.13 in 8.0 mi Calm Calm - N/A   Scattered Clouds
9:37 PM 53.6 °F - 53.6 °F 100% 30.13 in 1.8 mi ESE 4.6 mph - N/A   Mostly Cloudy
9:49 PM 53.6 °F - 51.8 °F 94% 30.13 in 1.8 mi East 5.8 mph - N/A   Mostly Cloudy
9:51 PM 53.6 °F - 51.8 °F 94% 30.13 in 4.0 mi East 4.6 mph - N/A   Mostly Cloudy
9:53 PM 53.1 °F - 52.0 °F 96% 30.09 in 4.0 mi East 4.6 mph - N/A   Mostly Cloudy
10:00 PM 53.6 °F - 53.6 °F 100% 30.12 in 1.5 mi East 5.8 mph - N/A   Overcast
10:09 PM 53.6 °F - 53.6 °F 100% 30.13 in 0.2 mi East 3.5 mph - N/A Fog Fog
10:53 PM 53.1 °F - 53.1 °F 100% 30.10 in 0.2 mi ESE 5.8 mph - N/A Fog Fog
11:53 PM 53.1 °F - 53.1 °F 100% 30.09 in 0.2 mi ESE 3.5 mph - N/A Fog Fog